| time (UTC) | temp F | wind direction | speed knots | gust knots | rain 1hr in | rain 24hr in | rain mn in | humidity % | barometer mb |
| 20260510220444 | 68 | 173 | 3.5 | 5.2 | 0.00 | 0.00 | 0.00 | 44 | 1013.8 |
| 20260510215940 | 68 | 190 | 0.0 | 2.6 | 0.00 | 0.00 | 0.00 | 44 | 1013.6 |
| 20260510215438 | 69 | 298 | 0.0 | 7.0 | 0.00 | 0.00 | 0.00 | 45 | 1013.3 |
| 20260510214935 | 69 | 134 | 0.9 | 7.8 | 0.00 | 0.00 | 0.00 | 45 | 1013.3 |
| 20260510214432 | 69 | 136 | 0.0 | 3.5 | 0.00 | 0.00 | 0.00 | 46 | 1013.2 |
| 20260510213929 | 68 | 280 | 2.6 | 6.1 | 0.00 | 0.00 | 0.00 | 48 | 1013.3 |
| 20260510213426 | 69 | 275 | 0.9 | 6.1 | 0.00 | 0.00 | 0.00 | 47 | 1013.1 |
| 20260510212922 | 69 | 100 | 0.9 | 3.5 | 0.00 | 0.00 | 0.00 | 48 | 1013.3 |
| 20260510212419 | 69 | 191 | 0.0 | 3.5 | 0.00 | 0.00 | 0.00 | 47 | 1013.1 |
| 20260510211916 | 70 | 283 | 0.9 | 1.7 | 0.00 | 0.00 | 0.00 | 49 | 1013.1 |
| 20260510211413 | 71 | 172 | 0.0 | 1.7 | 0.00 | 0.00 | 0.00 | 47 | 1013.2 |
| 20260510210908 | 71 | 267 | 0.0 | 1.7 | 0.00 | 0.00 | 0.00 | 50 | 1013.3 |
| 20260510210403 | 71 | 205 | 0.9 | 1.7 | 0.00 | 0.00 | 0.00 | 48 | 1013.1 |
| 20260510205902 | 70 | 204 | 3.5 | 5.2 | 0.00 | 0.00 | 0.00 | 47 | 1013.2 |
| 20260510205358 | 70 | 210 | 0.0 | 3.5 | 0.00 | 0.00 | 0.00 | 52 | 1012.9 |
| 20260510204854 | 70 | 123 | 0.9 | 0.9 | 0.00 | 0.00 | 0.00 | 48 | 1012.9 |
| 20260510204350 | 70 | 62 | 0.0 | 1.7 | 0.00 | 0.00 | 0.00 | 50 | 1013.0 |
| 20260510203847 | 71 | 316 | 0.0 | 1.7 | 0.00 | 0.00 | 0.00 | 50 | 1013.0 |
| 20260510203345 | 70 | 142 | 0.0 | 0.0 | 0.00 | 0.00 | 0.00 | 54 | 1012.8 |
| 20260510202840 | 67 | 286 | 0.0 | 2.6 | 0.00 | 0.00 | 0.00 | 57 | 1012.9 |
| 20260510202335 | 68 | 250 | 0.0 | 1.7 | 0.00 | 0.00 | 0.00 | 54 | 1013.1 |
| 20260510201832 | 70 | 298 | 0.9 | 3.5 | 0.00 | 0.00 | 0.00 | 52 | 1013.0 |
| 20260510201330 | 70 | 279 | 0.0 | 0.9 | 0.00 | 0.00 | 0.00 | 50 | 1013.0 |
| 20260510200826 | 70 | 150 | 1.7 | 7.0 | 0.00 | 0.00 | 0.00 | 52 | 1012.9 |
| 20260510200324 | 69 | 158 | 2.6 | 3.5 | 0.00 | 0.00 | 0.00 | 54 | 1013.0 |
| 20260510195819 | 71 | 129 | 0.0 | 0.9 | 0.00 | 0.00 | 0.00 | 54 | 1013.2 |
| 20260510195316 | 69 | 135 | 3.5 | 6.1 | 0.00 | 0.00 | 0.00 | 53 | 1013.0 |
| 20260510194811 | 68 | 295 | 2.6 | 6.1 | 0.00 | 0.00 | 0.00 | 55 | 1013.1 |
| 20260510194308 | 67 | 277 | 0.9 | 6.1 | 0.00 | 0.00 | 0.00 | 58 | 1013.0 |
| 20260510193804 | 67 | 102 | 0.9 | 5.2 | 0.00 | 0.00 | 0.00 | 57 | 1012.9 |
| 20260510193258 | 67 | 78 | 0.9 | 6.1 | 0.00 | 0.00 | 0.00 | 58 | 1013.1 |
| 20260510192755 | 68 | 310 | 0.0 | 5.2 | 0.00 | 0.00 | 0.00 | 56 | 1013.1 |
| 20260510192250 | 70 | 126 | 0.9 | 7.8 | 0.00 | 0.00 | 0.00 | 56 | 1013.0 |
| 20260510191746 | 70 | 27 | 0.0 | 5.2 | 0.00 | 0.00 | 0.00 | 55 | 1012.9 |
| 20260510191242 | 72 | 129 | 1.7 | 5.2 | 0.00 | 0.00 | 0.00 | 51 | 1013.1 |
| 20260510190741 | 71 | 115 | 0.0 | 3.5 | 0.00 | 0.00 | 0.00 | 53 | 1012.9 |
| 20260510190237 | 71 | 138 | 2.6 | 3.5 | 0.00 | 0.00 | 0.00 | 50 | 1012.9 |
| 20260510185733 | 71 | 143 | 1.7 | 5.2 | 0.00 | 0.00 | 0.00 | 52 | 1013.2 |
| 20260510185232 | 71 | 143 | 0.0 | 1.7 | 0.00 | 0.00 | 0.00 | 57 | 1013.1 |
| 20260510184728 | 71 | 119 | 0.9 | 5.2 | 0.00 | 0.00 | 0.00 | 54 | 1013.1 |
| 20260510184225 | 70 | 182 | 0.9 | 3.5 | 0.00 | 0.00 | 0.00 | 57 | 1012.9 |
| 20260510183720 | 71 | 146 | 0.9 | 3.5 | 0.00 | 0.00 | 0.00 | 57 | 1013.0 |
| 20260510183215 | 71 | 274 | 0.0 | 2.6 | 0.00 | 0.00 | 0.00 | 57 | 1012.9 |
| 20260510182712 | 70 | 80 | 0.0 | 3.5 | 0.00 | 0.00 | 0.00 | 58 | 1013.1 |
| 20260510182208 | 71 | 150 | 0.0 | 3.5 | 0.00 | 0.00 | 0.00 | 62 | 1013.2 |
| 20260510181704 | 68 | 83 | 1.7 | 5.2 | 0.00 | 0.00 | 0.00 | 61 | 1013.1 |
| 20260510181201 | 67 | 131 | 0.0 | 8.7 | 0.00 | 0.00 | 0.00 | 67 | 1013.0 |
| 20260510180657 | 67 | 90 | 0.0 | 2.6 | 0.00 | 0.00 | 0.00 | 69 | 1013.2 |
| 20260510180155 | 64 | 110 | 1.7 | 2.6 | 0.00 | 0.00 | 0.00 | 72 | 1013.2 |
| 20260510175651 | 62 | 103 | 1.7 | 2.6 | 0.00 | 0.00 | 0.00 | 76 | 1013.2 |
| 20260510175147 | 61 | 176 | 0.0 | 0.9 | 0.00 | 0.00 | 0.00 | 80 | 1013.3 |
| 20260510174644 | 61 | 47 | 0.0 | 0.0 | 0.00 | 0.00 | 0.00 | 82 | 1013.3 |
| 20260510174142 | 62 | 306 | 0.0 | 3.5 | 0.00 | 0.00 | 0.00 | 80 | 1013.3 |
| 20260510173638 | 64 | 207 | 0.0 | 0.0 | 0.00 | 0.00 | 0.00 | 78 | 1013.1 |
| 20260510173134 | 65 | 131 | 0.0 | 0.0 | 0.00 | 0.00 | 0.00 | 67 | 1012.8 |
| 20260510172629 | 65 | 117 | 0.0 | 2.6 | 0.00 | 0.00 | 0.00 | 65 | 1013.1 |
| 20260510172126 | 66 | 71 | 0.0 | 0.0 | 0.00 | 0.00 | 0.00 | 64 | 1013.1 |
| 20260510171623 | 64 | 137 | 0.0 | 0.0 | 0.00 | 0.00 | 0.00 | 67 | 1013.3 |
| 20260510171121 | 65 | 136 | 0.0 | 0.0 | 0.00 | 0.00 | 0.00 | 69 | 1013.2 |
| 20260510170616 | 65 | 46 | 0.0 | 2.6 | 0.00 | 0.00 | 0.00 | 66 | 1013.0 |
| 20260510170113 | 67 | 126 | 0.9 | 1.7 | 0.00 | 0.00 | 0.00 | 63 | 1013.2 |
| 20260510165609 | 67 | 181 | 1.7 | 3.5 | 0.00 | 0.00 | 0.00 | 61 | 1013.4 |
| 20260510165104 | 67 | 103 | 0.0 | 2.6 | 0.00 | 0.00 | 0.00 | 62 | 1013.4 |
| 20260510164602 | 70 | 124 | 0.0 | 0.9 | 0.00 | 0.00 | 0.00 | 61 | 1013.4 |
| 20260510164059 | 69 | 167 | 0.0 | 1.7 | 0.00 | 0.00 | 0.00 | 59 | 1013.3 |
| 20260510163554 | 68 | 180 | 3.5 | 7.8 | 0.00 | 0.00 | 0.00 | 62 | 1013.4 |
| 20260510163050 | 69 | 109 | 2.6 | 5.2 | 0.00 | 0.00 | 0.00 | 60 | 1013.4 |
| 20260510162545 | 68 | 183 | 0.0 | 6.1 | 0.00 | 0.00 | 0.00 | 66 | 1013.4 |
| 20260510162042 | 65 | 78 | 0.0 | 0.9 | 0.00 | 0.00 | 0.00 | 69 | 1013.6 |
| 20260510161538 | 65 | 91 | 0.0 | 2.6 | 0.00 | 0.00 | 0.00 | 69 | 1013.5 |
| 20260510161034 | 65 | 344 | 0.9 | 1.7 | 0.00 | 0.00 | 0.00 | 67 | 1013.5 |
| 20260510160526 | 66 | 179 | 0.0 | 1.7 | 0.00 | 0.00 | 0.00 | 69 | 1013.3 |
| 20260510160026 | 68 | 145 | 0.0 | 3.5 | 0.00 | 0.00 | 0.00 | 67 | 1013.4 |
| 20260510155522 | 65 | 171 | 0.0 | 1.7 | 0.00 | 0.00 | 0.00 | 69 | 1013.3 |
| 20260510155019 | 66 | 165 | 0.0 | 0.9 | 0.00 | 0.00 | 0.00 | 69 | 1013.5 |
| 20260510154514 | 67 | 170 | 0.0 | 0.0 | 0.00 | 0.00 | 0.00 | 68 | 1013.5 |
| 20260510154009 | 66 | 236 | 0.9 | 1.7 | 0.00 | 0.00 | 0.00 | 69 | 1013.4 |
| 20260510153504 | 65 | 112 | 0.9 | 2.6 | 0.00 | 0.00 | 0.00 | 72 | 1013.5 |
| 20260510153002 | 63 | 109 | 0.0 | 0.0 | 0.00 | 0.00 | 0.00 | 77 | 1013.5 |
| 20260510152459 | 63 | 168 | 0.0 | 1.7 | 0.00 | 0.00 | 0.00 | 76 | 1013.5 |
| 20260510151954 | 62 | 59 | 0.0 | 0.9 | 0.00 | 0.00 | 0.00 | 76 | 1013.4 |
| 20260510151451 | 62 | 130 | 0.9 | 1.7 | 0.00 | 0.00 | 0.00 | 76 | 1013.5 |
| 20260510150948 | 64 | 118 | 0.9 | 3.5 | 0.00 | 0.00 | 0.00 | 74 | 1013.6 |
| 20260510150438 | 62 | 134 | 0.0 | 2.6 | 0.00 | 0.00 | 0.00 | 77 | 1013.6 |
| 20260510145933 | 62 | 153 | 0.9 | 1.7 | 0.00 | 0.00 | 0.00 | 76 | 1013.5 |
| 20260510145425 | 62 | 159 | 0.0 | 5.2 | 0.00 | 0.00 | 0.00 | 85 | 1013.5 |
| 20260510144921 | 61 | 252 | 0.0 | 1.7 | 0.00 | 0.00 | 0.00 | 79 | 1013.7 |
| 20260510144418 | 60 | 167 | 0.0 | 1.7 | 0.00 | 0.00 | 0.00 | 85 | 1013.5 |
| 20260510143913 | 59 | 290 | 0.0 | 0.0 | 0.00 | 0.00 | 0.00 | 84 | 1013.3 |
| 20260510143409 | 59 | 171 | 0.0 | 0.0 | 0.00 | 0.00 | 0.00 | 86 | 1013.7 |
| 20260510142906 | 59 | 141 | 0.0 | 0.0 | 0.00 | 0.00 | 0.00 | 84 | 1013.7 |
| 20260510142403 | 60 | 147 | 0.0 | 1.7 | 0.00 | 0.00 | 0.00 | 86 | 1013.6 |
| 20260510141900 | 57 | 115 | 0.0 | 0.9 | 0.00 | 0.00 | 0.00 | 91 | 1013.7 |
| 20260510141357 | 56 | 181 | 0.0 | 1.7 | 0.00 | 0.00 | 0.00 | 92 | 1013.9 |
| 20260510140854 | 55 | 153 | 0.0 | 0.0 | 0.00 | 0.00 | 0.00 | 92 | 1013.8 |
| 20260510140349 | 55 | 149 | 0.0 | 0.0 | 0.00 | 0.00 | 0.00 | 94 | 1013.8 |
| 20260510135843 | 54 | 172 | 0.0 | 0.0 | 0.00 | 0.00 | 0.00 | 95 | 1013.9 |
| 20260510135339 | 54 | 106 | 0.0 | 0.0 | 0.00 | 0.00 | 0.00 | 96 | 1014.0 |
| 20260510134837 | 53 | 166 | 0.0 | 0.0 | 0.00 | 0.00 | 0.00 | 97 | 1013.9 |
| 20260510134334 | 53 | 126 | 0.0 | 0.0 | 0.00 | 0.00 | 0.00 | 96 | 1014.1 |
| 20260510133830 | 53 | 135 | 0.0 | 0.0 | 0.00 | 0.00 | 0.00 | 97 | 1013.8 |
| 20260510133326 | 53 | 60 | 0.0 | 0.0 | 0.00 | 0.00 | 0.00 | 96 | 1013.8 |
| 20260510132821 | 53 | 171 | 0.0 | 0.0 | 0.00 | 0.00 | 0.00 | 97 | 1013.8 |
| 20260510132320 | 53 | 171 | 0.0 | 0.0 | 0.00 | 0.00 | 0.00 | 95 | 1013.7 |
| 20260510131816 | 53 | 97 | 0.0 | 0.0 | 0.00 | 0.00 | 0.00 | 96 | 1013.8 |
| 20260510131314 | 53 | 180 | 0.0 | 0.0 | 0.00 | 0.00 | 0.00 | 98 | 1013.9 |
| 20260510130811 | 52 | 236 | 0.0 | 0.0 | 0.00 | 0.00 | 0.00 | 98 | 1013.8 |
| 20260510130308 | 51 | 33 | 0.0 | 0.0 | 0.00 | 0.00 | 0.00 | 99 | 1013.9 |
| 20260510125804 | 52 | 15 | 0.0 | 0.0 | 0.00 | 0.00 | 0.00 | 99 | 1013.6 |
| 20260510125300 | 52 | 109 | 0.0 | 0.0 | 0.00 | 0.00 | 0.00 | 99 | 1013.6 |
| 20260510124757 | 52 | 89 | 0.0 | 0.0 | 0.00 | 0.00 | 0.00 | 99 | 1013.6 |
| 20260510124254 | 51 | 127 | 0.0 | 0.0 | 0.00 | 0.00 | 0.00 | 99 | 1013.7 |
| 20260510123749 | 51 | 66 | 0.0 | 1.7 | 0.00 | 0.00 | 0.00 | 99 | 1013.5 |
| 20260510123245 | 51 | 121 | 0.0 | 0.0 | 0.00 | 0.00 | 0.00 | 99 | 1013.5 |
| 20260510122742 | 51 | 155 | 0.0 | 0.0 | 0.00 | 0.00 | 0.00 | 99 | 1013.6 |
| 20260510122238 | 51 | 141 | 0.0 | 0.0 | 0.00 | 0.00 | 0.00 | 99 | 1013.6 |
| 20260510121734 | 51 | 174 | 0.0 | 0.0 | 0.00 | 0.00 | 0.00 | 99 | 1013.6 |
| 20260510121232 | 51 | 166 | 0.0 | 0.0 | 0.00 | 0.00 | 0.00 | 99 | 1013.7 |
| 20260510120724 | 51 | 189 | 0.0 | 0.0 | 0.00 | 0.00 | 0.00 | 99 | 1013.9 |
| 20260510120220 | 50 | 189 | 0.0 | 0.0 | 0.00 | 0.00 | 0.00 | 99 | 1013.8 |
| 20260510115716 | 50 | 211 | 0.0 | 0.0 | 0.00 | 0.00 | 0.00 | 99 | 1013.9 |
| 20260510115215 | 50 | 211 | 0.0 | 0.0 | 0.00 | 0.00 | 0.00 | 99 | 1013.8 |
| 20260510114709 | 49 | 210 | 0.0 | 0.0 | 0.00 | 0.00 | 0.00 | 99 | 1013.9 |
| 20260510114207 | 49 | 197 | 0.0 | 0.0 | 0.00 | 0.00 | 0.00 | 99 | 1013.7 |
| 20260510113701 | 49 | 130 | 0.0 | 0.0 | 0.00 | 0.00 | 0.00 | 99 | 1013.8 |
| 20260510113158 | 49 | 142 | 0.0 | 0.0 | 0.00 | 0.00 | 0.00 | 99 | 1013.9 |
| 20260510112654 | 49 | 139 | 0.0 | 0.0 | 0.00 | 0.00 | 0.00 | 99 | 1013.9 |
| 20260510112152 | 49 | 201 | 0.0 | 0.0 | 0.00 | 0.00 | 0.00 | 99 | 1013.7 |
| 20260510111642 | 49 | 178 | 0.0 | 0.0 | 0.00 | 0.00 | 0.00 | 99 | 1013.6 |
| 20260510111139 | 48 | 221 | 0.0 | 0.0 | 0.00 | 0.00 | 0.00 | 99 | 1013.5 |
| 20260510110634 | 48 | 122 | 0.0 | 0.0 | 0.00 | 0.00 | 0.00 | 99 | 1013.3 |
| 20260510110131 | 48 | 121 | 0.0 | 0.0 | 0.00 | 0.00 | 0.00 | 99 | 1013.1 |
| 20260510105626 | 48 | 151 | 0.0 | 0.0 | 0.00 | 0.00 | 0.00 | 99 | 1013.0 |
| 20260510105121 | 47 | 221 | 0.0 | 0.0 | 0.00 | 0.00 | 0.00 | 99 | 1013.2 |
| 20260510104618 | 47 | 180 | 0.0 | 0.0 | 0.00 | 0.00 | 0.00 | 99 | 1013.0 |
| 20260510104115 | 47 | 164 | 0.0 | 0.0 | 0.00 | 0.00 | 0.00 | 99 | 1012.8 |
| 20260510103612 | 47 | 163 | 0.0 | 0.0 | 0.00 | 0.00 | 0.00 | 99 | 1012.9 |
| 20260510103108 | 46 | 163 | 0.0 | 0.0 | 0.00 | 0.00 | 0.00 | 99 | 1012.7 |
| 20260510102603 | 46 | 157 | 0.0 | 0.0 | 0.00 | 0.00 | 0.00 | 99 | 1012.9 |
| 20260510102059 | 46 | 193 | 0.0 | 0.0 | 0.00 | 0.00 | 0.00 | 99 | 1012.7 |
| 20260510101557 | 46 | 193 | 0.0 | 0.0 | 0.00 | 0.00 | 0.00 | 99 | 1012.8 |
| 20260510101055 | 46 | 193 | 0.0 | 0.0 | 0.00 | 0.00 | 0.00 | 99 | 1012.8 |
| 20260510100551 | 46 | 193 | 0.0 | 0.0 | 0.00 | 0.00 | 0.00 | 99 | 1012.3 |
| 20260510100049 | 46 | 192 | 0.0 | 0.0 | 0.00 | 0.00 | 0.00 | 99 | 1012.2 |
| 20260510095545 | 45 | 191 | 0.0 | 0.0 | 0.00 | 0.00 | 0.00 | 99 | 1012.1 |
| 20260510095044 | 45 | 191 | 0.0 | 0.0 | 0.00 | 0.00 | 0.00 | 99 | 1012.2 |
| 20260510094544 | 45 | 198 | 0.0 | 0.0 | 0.00 | 0.00 | 0.00 | 99 | 1012.2 |
| 20260510094039 | 45 | 198 | 0.0 | 0.0 | 0.00 | 0.00 | 0.00 | 99 | 1011.9 |
| 20260510093535 | 45 | 198 | 0.0 | 0.0 | 0.00 | 0.00 | 0.00 | 99 | 1012.3 |
| 20260510093033 | 45 | 198 | 0.0 | 0.0 | 0.00 | 0.00 | 0.00 | 99 | 1012.5 |
| 20260510092530 | 45 | 198 | 0.0 | 0.0 | 0.00 | 0.00 | 0.00 | 99 | 1012.5 |
| 20260510092029 | 45 | 198 | 0.0 | 0.0 | 0.00 | 0.00 | 0.00 | 99 | 1012.1 |
| 20260510091526 | 45 | 198 | 0.0 | 0.0 | 0.00 | 0.00 | 0.00 | 99 | 1012.3 |
| 20260510091022 | 45 | 198 | 0.0 | 0.0 | 0.00 | 0.00 | 0.00 | 99 | 1012.1 |
| 20260510090519 | 45 | 198 | 0.0 | 0.0 | 0.00 | 0.00 | 0.00 | 99 | 1012.2 |
| 20260510090015 | 45 | 198 | 0.0 | 0.0 | 0.00 | 0.00 | 0.00 | 99 | 1012.3 |
| 20260510085510 | 45 | 198 | 0.0 | 0.0 | 0.00 | 0.00 | 0.00 | 99 | 1012.4 |
| 20260510085006 | 45 | 198 | 0.0 | 0.0 | 0.00 | 0.00 | 0.00 | 99 | 1012.4 |
| 20260510084503 | 45 | 198 | 0.0 | 0.0 | 0.00 | 0.00 | 0.00 | 99 | 1012.6 |
| 20260510084000 | 45 | 198 | 0.0 | 0.0 | 0.00 | 0.00 | 0.00 | 99 | 1012.7 |
| 20260510083456 | 45 | 198 | 0.0 | 0.0 | 0.00 | 0.00 | 0.00 | 99 | 1012.7 |
| 20260510082951 | 45 | 198 | 0.0 | 0.0 | 0.00 | 0.00 | 0.00 | 99 | 1012.5 |
| 20260510082449 | 45 | 198 | 0.0 | 0.0 | 0.00 | 0.00 | 0.00 | 99 | 1012.4 |
| 20260510081949 | 45 | 198 | 0.0 | 0.0 | 0.00 | 0.00 | 0.00 | 99 | 1012.4 |
| 20260510081444 | 45 | 198 | 0.0 | 0.0 | 0.00 | 0.00 | 0.00 | 99 | 1012.6 |
| 20260510080942 | 45 | 198 | 0.0 | 0.0 | 0.00 | 0.00 | 0.00 | 99 | 1012.4 |
| 20260510080439 | 45 | 198 | 0.0 | 0.0 | 0.00 | 0.00 | 0.00 | 99 | 1012.4 |
| 20260510075937 | 45 | 192 | 0.0 | 0.0 | 0.00 | 0.00 | 0.00 | 99 | 1012.5 |
| 20260510075435 | 45 | 191 | 0.0 | 0.0 | 0.00 | 0.00 | 0.00 | 99 | 1012.6 |
| 20260510074931 | 45 | 191 | 0.0 | 0.0 | 0.00 | 0.00 | 0.00 | 99 | 1012.3 |
| 20260510074428 | 45 | 191 | 0.0 | 0.0 | 0.00 | 0.00 | 0.00 | 99 | 1012.4 |
| 20260510073925 | 45 | 191 | 0.0 | 0.0 | 0.00 | 0.00 | 0.00 | 99 | 1012.4 |
| 20260510073420 | 45 | 191 | 0.0 | 0.0 | 0.00 | 0.00 | 0.00 | 99 | 1012.3 |
| 20260510072917 | 45 | 191 | 0.0 | 0.0 | 0.00 | 0.00 | 0.00 | 99 | 1012.5 |
| 20260510072414 | 45 | 196 | 0.0 | 0.0 | 0.00 | 0.00 | 0.00 | 99 | 1012.4 |
| 20260510071909 | 45 | 196 | 0.0 | 0.0 | 0.00 | 0.00 | 0.00 | 99 | 1012.4 |
| 20260510071406 | 45 | 196 | 0.0 | 0.0 | 0.00 | 0.00 | 0.00 | 99 | 1012.4 |
| 20260510070905 | 45 | 196 | 0.0 | 0.0 | 0.00 | 0.00 | 0.00 | 99 | 1012.4 |
| 20260510070401 | 45 | 196 | 0.0 | 0.0 | 0.00 | 0.00 | 0.00 | 99 | 1012.2 |
| 20260510065856 | 45 | 196 | 0.0 | 0.0 | 0.00 | 0.00 | 0.00 | 99 | 1012.4 |
| 20260510065353 | 45 | 196 | 0.0 | 0.0 | 0.00 | 0.00 | 0.00 | 99 | 1012.6 |
| 20260510064850 | 45 | 196 | 0.0 | 0.0 | 0.00 | 0.00 | 0.00 | 99 | 1012.5 |
| 20260510064348 | 45 | 196 | 0.0 | 0.0 | 0.00 | 0.00 | 0.00 | 99 | 1012.4 |
| 20260510063844 | 45 | 196 | 0.0 | 0.0 | 0.00 | 0.00 | 0.00 | 99 | 1012.8 |
| 20260510063340 | 45 | 196 | 0.0 | 0.0 | 0.00 | 0.00 | 0.00 | 99 | 1012.5 |
| 20260510062837 | 45 | 196 | 0.0 | 0.0 | 0.00 | 0.00 | 0.00 | 99 | 1012.5 |
| 20260510062333 | 45 | 196 | 0.0 | 0.0 | 0.00 | 0.00 | 0.00 | 99 | 1012.4 |
| 20260510061828 | 45 | 196 | 0.0 | 0.0 | 0.00 | 0.00 | 0.00 | 99 | 1012.6 |
| 20260510061325 | 45 | 196 | 0.0 | 0.0 | 0.00 | 0.00 | 0.00 | 99 | 1012.6 |
| 20260510060821 | 45 | 196 | 0.0 | 0.0 | 0.00 | 0.00 | 0.00 | 99 | 1012.3 |
| 20260510060319 | 45 | 196 | 0.0 | 0.0 | 0.00 | 0.00 | 0.00 | 99 | 1012.5 |
| 20260510055815 | 45 | 196 | 0.0 | 0.0 | 0.00 | 0.00 | 0.00 | 99 | 1012.5 |
| 20260510055314 | 45 | 196 | 0.0 | 0.0 | 0.00 | 0.00 | 0.00 | 99 | 1012.6 |
| 20260510054813 | 45 | 196 | 0.0 | 0.0 | 0.00 | 0.00 | 0.00 | 99 | 1012.5 |
| 20260510054309 | 45 | 196 | 0.0 | 0.0 | 0.00 | 0.00 | 0.00 | 99 | 1012.4 |
| 20260510053804 | 45 | 194 | 0.0 | 0.0 | 0.00 | 0.00 | 0.00 | 99 | 1012.6 |
| 20260510053259 | 45 | 194 | 0.0 | 0.0 | 0.00 | 0.00 | 0.00 | 99 | 1012.5 |
| 20260510052756 | 45 | 212 | 0.0 | 0.0 | 0.00 | 0.00 | 0.00 | 99 | 1012.3 |
| 20260510052251 | 45 | 242 | 0.0 | 0.0 | 0.00 | 0.00 | 0.00 | 99 | 1012.7 |
| 20260510051748 | 45 | 216 | 0.0 | 0.0 | 0.00 | 0.00 | 0.00 | 99 | 1012.7 |
| 20260510051239 | 45 | 216 | 0.0 | 0.0 | 0.00 | 0.00 | 0.00 | 99 | 1012.8 |
| 20260510050736 | 45 | 216 | 0.0 | 0.0 | 0.00 | 0.00 | 0.00 | 99 | 1012.6 |
| 20260510050233 | 45 | 216 | 0.0 | 0.0 | 0.00 | 0.00 | 0.00 | 99 | 1012.8 |
| 20260510045730 | 45 | 216 | 0.0 | 0.0 | 0.00 | 0.00 | 0.00 | 99 | 1012.7 |
| 20260510045226 | 45 | 216 | 0.0 | 0.0 | 0.00 | 0.00 | 0.00 | 99 | 1013.0 |
| 20260510044723 | 45 | 216 | 0.0 | 0.0 | 0.00 | 0.00 | 0.00 | 99 | 1012.9 |
| 20260510044221 | 45 | 216 | 0.0 | 0.0 | 0.00 | 0.00 | 0.00 | 99 | 1012.9 |
| 20260510043716 | 45 | 216 | 0.0 | 0.0 | 0.00 | 0.00 | 0.00 | 99 | 1013.1 |
| 20260510043213 | 45 | 193 | 0.0 | 0.0 | 0.00 | 0.00 | 0.00 | 99 | 1013.2 |
| 20260510042710 | 45 | 219 | 0.0 | 0.0 | 0.00 | 0.00 | 0.00 | 99 | 1013.2 |
| 20260510042206 | 45 | 219 | 0.0 | 0.0 | 0.00 | 0.00 | 0.00 | 99 | 1012.9 |
| 20260510041704 | 45 | 219 | 0.0 | 0.0 | 0.00 | 0.00 | 0.00 | 99 | 1013.0 |
| 20260510041201 | 45 | 219 | 0.0 | 0.0 | 0.00 | 0.00 | 0.00 | 99 | 1013.0 |
| 20260510040657 | 45 | 219 | 0.0 | 0.0 | 0.00 | 0.00 | 0.00 | 99 | 1013.1 |
| 20260510040154 | 45 | 219 | 0.0 | 0.0 | 0.00 | 0.00 | 0.00 | 99 | 1013.0 |
| 20260510035650 | 45 | 219 | 0.0 | 0.0 | 0.00 | 0.80 | 0.80 | 99 | 1013.2 |
| 20260510035145 | 45 | 219 | 0.0 | 0.0 | 0.00 | 0.80 | 0.80 | 99 | 1012.9 |
| 20260510034642 | 45 | 219 | 0.0 | 0.0 | 0.00 | 0.80 | 0.80 | 99 | 1012.8 |
| 20260510034139 | 45 | 219 | 0.0 | 0.0 | 0.00 | 0.80 | 0.80 | 99 | 1012.9 |
| 20260510033635 | 45 | 219 | 0.0 | 0.0 | 0.00 | 0.80 | 0.80 | 99 | 1013.1 |
| 20260510033133 | 45 | 188 | 0.0 | 0.0 | 0.00 | 0.80 | 0.80 | 99 | 1013.1 |
| 20260510032630 | 45 | 188 | 0.0 | 0.0 | 0.00 | 0.80 | 0.80 | 99 | 1013.2 |
| 20260510032125 | 45 | 188 | 0.0 | 0.0 | 0.00 | 0.80 | 0.80 | 99 | 1013.2 |
| 20260510031620 | 45 | 188 | 0.0 | 0.0 | 0.00 | 0.80 | 0.80 | 99 | 1013.3 |
| 20260510031117 | 45 | 188 | 0.0 | 0.0 | 0.00 | 0.80 | 0.80 | 99 | 1013.2 |
| 20260510030611 | 45 | 188 | 0.0 | 0.0 | 0.00 | 0.80 | 0.80 | 99 | 1013.5 |
| 20260510030109 | 45 | 192 | 0.0 | 0.0 | 0.00 | 0.80 | 0.80 | 99 | 1013.6 |
| 20260510025606 | 45 | 192 | 0.0 | 0.0 | 0.00 | 0.80 | 0.80 | 99 | 1013.5 |
| 20260510025104 | 45 | 192 | 0.0 | 0.0 | 0.00 | 0.80 | 0.80 | 99 | 1013.6 |
| 20260510024600 | 45 | 192 | 0.0 | 0.0 | 0.00 | 0.80 | 0.80 | 99 | 1013.6 |
| 20260510024056 | 45 | 192 | 0.0 | 0.0 | 0.00 | 0.80 | 0.80 | 99 | 1013.4 |
| 20260510023553 | 45 | 192 | 0.0 | 0.0 | 0.00 | 0.80 | 0.80 | 99 | 1013.4 |
| 20260510023050 | 45 | 192 | 0.0 | 0.0 | 0.00 | 0.80 | 0.80 | 99 | 1013.6 |
| 20260510022549 | 45 | 192 | 0.0 | 0.0 | 0.00 | 0.80 | 0.80 | 99 | 1013.4 |
| 20260510022044 | 45 | 192 | 0.0 | 0.0 | 0.00 | 0.80 | 0.80 | 99 | 1013.7 |
| 20260510021540 | 45 | 192 | 0.0 | 0.0 | 0.00 | 0.80 | 0.80 | 99 | 1013.7 |
| 20260510021038 | 45 | 192 | 0.0 | 0.0 | 0.00 | 0.80 | 0.80 | 99 | 1013.8 |
| 20260510020532 | 45 | 192 | 0.0 | 0.0 | 0.00 | 0.80 | 0.80 | 99 | 1013.7 |
| 20260510020028 | 45 | 192 | 0.0 | 0.0 | 0.00 | 0.80 | 0.80 | 99 | 1013.8 |
| 20260510015518 | 45 | 192 | 0.0 | 0.0 | 0.00 | 0.80 | 0.80 | 99 | 1013.6 |
| 20260510015014 | 45 | 192 | 0.0 | 0.0 | 0.00 | 0.80 | 0.80 | 99 | 1013.7 |
| 20260510014511 | 45 | 191 | 0.0 | 0.0 | 0.00 | 0.80 | 0.80 | 99 | 1013.6 |
| 20260510014009 | 45 | 190 | 0.0 | 0.0 | 0.00 | 0.80 | 0.80 | 99 | 1013.9 |
| 20260510013508 | 45 | 190 | 0.0 | 0.0 | 0.00 | 0.80 | 0.80 | 99 | 1013.7 |
| 20260510013004 | 45 | 190 | 0.0 | 0.0 | 0.00 | 0.80 | 0.80 | 99 | 1013.9 |
| 20260510012458 | 45 | 183 | 0.0 | 0.0 | 0.00 | 0.80 | 0.80 | 99 | 1013.8 |
| 20260510011954 | 45 | 199 | 0.0 | 0.0 | 0.00 | 0.80 | 0.80 | 99 | 1013.7 |
| 20260510011449 | 45 | 199 | 0.0 | 0.0 | 0.00 | 0.80 | 0.80 | 99 | 1013.6 |
| 20260510010945 | 45 | 199 | 0.0 | 0.0 | 0.00 | 0.80 | 0.80 | 99 | 1013.6 |
| 20260510010443 | 44 | 199 | 0.0 | 0.0 | 0.00 | 0.80 | 0.80 | 99 | 1013.6 |
| 20260510005939 | 44 | 194 | 0.0 | 0.0 | 0.00 | 0.80 | 0.80 | 99 | 1013.6 |
| 20260510005435 | 44 | 157 | 0.0 | 0.0 | 0.00 | 0.80 | 0.80 | 99 | 1013.6 |
| 20260510004933 | 44 | 257 | 0.0 | 0.0 | 0.00 | 0.80 | 0.80 | 99 | 1013.5 |
| 20260510004430 | 44 | 253 | 0.0 | 0.0 | 0.00 | 0.80 | 0.80 | 99 | 1013.3 |
| 20260510003928 | 44 | 266 | 0.0 | 0.0 | 0.00 | 0.80 | 0.80 | 99 | 1013.5 |
| 20260510003425 | 44 | 129 | 0.0 | 0.0 | 0.00 | 0.80 | 0.80 | 99 | 1013.6 |
| 20260510002924 | 44 | 227 | 0.0 | 0.0 | 0.00 | 0.80 | 0.80 | 99 | 1013.4 |
| 20260510002421 | 44 | 110 | 0.0 | 0.0 | 0.00 | 0.80 | 0.80 | 99 | 1013.2 |
| 20260510001918 | 44 | 180 | 0.0 | 0.0 | 0.00 | 0.80 | 0.80 | 99 | 1013.3 |
| 20260510001415 | 44 | 146 | 0.0 | 0.0 | 0.00 | 0.80 | 0.80 | 99 | 1013.3 |
| 20260510000912 | 44 | 231 | 0.0 | 0.0 | 0.00 | 0.80 | 0.80 | 99 | 1013.3 |
| 20260510000411 | 44 | 231 | 0.0 | 0.0 | 0.00 | 0.80 | 0.80 | 99 | 1013.3 |
| 20260509235905 | 44 | 218 | 0.0 | 0.0 | 0.00 | 0.80 | 0.80 | 99 | 1013.2 |
| 20260509235402 | 44 | 211 | 0.0 | 0.0 | 0.00 | 0.80 | 0.80 | 99 | 1013.2 |
| 20260509234858 | 44 | 228 | 0.0 | 0.0 | 0.00 | 0.80 | 0.80 | 99 | 1013.1 |
| 20260509234355 | 44 | 228 | 0.0 | 0.0 | 0.00 | 0.80 | 0.80 | 99 | 1013.3 |
| 20260509233853 | 44 | 228 | 0.0 | 0.0 | 0.00 | 0.80 | 0.80 | 99 | 1013.2 |
| 20260509233351 | 44 | 228 | 0.0 | 0.0 | 0.00 | 0.80 | 0.80 | 99 | 1013.1 |
| 20260509232846 | 44 | 182 | 0.0 | 0.0 | 0.00 | 0.80 | 0.80 | 99 | 1013.0 |
| 20260509232344 | 44 | 199 | 0.0 | 0.0 | 0.00 | 0.80 | 0.80 | 99 | 1013.3 |
| 20260509231840 | 44 | 199 | 0.0 | 0.0 | 0.00 | 0.80 | 0.80 | 99 | 1013.1 |
| 20260509231337 | 44 | 199 | 0.0 | 0.0 | 0.00 | 0.80 | 0.80 | 99 | 1013.1 |
| 20260509230835 | 45 | 199 | 0.0 | 0.0 | 0.00 | 0.80 | 0.80 | 99 | 1012.9 |
| 20260509230332 | 44 | 199 | 0.0 | 0.0 | 0.00 | 0.80 | 0.80 | 99 | 1013.0 |
| 20260509225826 | 44 | 199 | 0.0 | 0.0 | 0.00 | 0.80 | 0.80 | 99 | 1013.0 |
| 20260509225324 | 44 | 199 | 0.0 | 0.0 | 0.00 | 0.80 | 0.80 | 99 | 1013.0 |
| 20260509224820 | 44 | 199 | 0.0 | 0.0 | 0.07 | 0.80 | 0.80 | 99 | 1013.0 |
| 20260509224316 | 44 | 199 | 0.0 | 0.0 | 0.07 | 0.80 | 0.80 | 99 | 1013.1 |
| 20260509223813 | 44 | 199 | 0.0 | 0.0 | 0.00 | 0.79 | 0.79 | 99 | 1013.1 |
| 20260509223310 | 44 | 199 | 0.0 | 0.0 | 0.00 | 0.79 | 0.79 | 99 | 1013.1 |
| 20260509222807 | 44 | 199 | 0.0 | 0.0 | 0.00 | 0.79 | 0.79 | 99 | 1013.0 |
| 20260509222306 | 44 | 199 | 0.0 | 0.0 | 0.00 | 0.79 | 0.79 | 99 | 1013.1 |
| 20260509221758 | 44 | 199 | 0.0 | 0.0 | 0.00 | 0.79 | 0.79 | 99 | 1013.1 |
| 20260509221255 | 44 | 199 | 0.0 | 0.0 | 0.00 | 0.79 | 0.79 | 99 | 1013.2 |
| 20260509220750 | 44 | 199 | 0.0 | 0.0 | 0.00 | 0.79 | 0.79 | 99 | 1013.0 |